"Pseudo-MPEC" for CC9FHF2

Created 2024 Nov 20 15:31:02 UT using Find_Orb

Click here for an explanation of pseudo-MPECs

 
 Astrometry: 
     CC9FHF2*1C2024 11 13.46793009 03 25.898+27 49 50.52   ~BDC2       VNEOCPG96
     CC9FHF2 1C2024 11 13.47315109 03 26.140+27 49 45.95   ~BDC2 21.01GVNEOCPG96
     CC9FHF2 1C2024 11 13.47835809 03 26.244+27 49 41.34   ~BDC2 20.94GVNEOCPG96
     CC9FHF2 KC2024 11 14.37514909 03 58.903+27 36 17.93   ~BEA2       VNEOCPI52
     CC9FHF2 KC2024 11 14.37887709 03 59.058+27 36 14.80   ~BEA2 20.74GVNEOCPI52
     CC9FHF2 KC2024 11 14.38261909 03 59.152+27 36 11.12   ~BEA2 20.97GVNEOCPI52
     CC9FHF2 KC2024 11 14.38636309 03 59.303+27 36 08.24   ~BEA2 21.28GVNEOCPI52
     CC9FHF2 KC2024 11 15.46895309 04 35.770+27 19 56.60   ~BFC2 21.12GVNEOCPI52
     CC9FHF2 KC2024 11 15.47401809 04 35.940+27 19 52.40   ~BFC2 21.57GVNEOCPI52
     CC9FHF2 KC2024 11 15.47908809 04 35.960+27 19 48.10   ~BFC2 22.11GVNEOCPI52

Station data:
(G96) Mt. Lemmon Survey  (N32.442729 W110.788720)  US/Arizona.  Observer E.
   J. Christensen. 1.5-m reflector + 10K CCD.
(I52) Steward Observatory, Mt. Lemmon Station  (N32.442570 W110.788920)
   US/Arizona.  Observers T. A. Pruyne, B. M. Africano, E. J. Christensen, G.
   A. Farneth, D. C. Fuls, A. R. Gibbs, A. D. Grauer, H. Gröller, J. A.
   Johnson, R. A. Kowalski, S. M. Larson, G. J. Leonard, D. Rankin, R. L.
   Seaman, F. C. Shelly, K. W. Wierzchoś. 1.0-m prime focus + CCD.

Orbital elements:  CC9FHF2
   Perihelion 2024 Aug 11.62113 +/- 15.6 TT = 14:54:25 (JD 2460534.12113)
Epoch 2024 Nov 15.0 TT = JDT 2460629.5   Earth MOID: 0.9015      AutoNEOCP
M  25.42449650 +/- 9                (J2000 ecliptic)
n   0.26656320 +/- 0.0599           Peri.  122.16416 +/- 7
a   2.39112665 +/- 0.358            Node   292.13956 +/- 0.9
e   0.2573854 +/- 0.0981            Incl.   31.01147 +/- 0.7
P   3.69746                H 18.06  G  0.15   U 10.9
q 1.77568544 +/- 0.0588    Q 3.00656787 +/- 0.682
From 10 observations 2024 Nov. 13-15; mean residual 0".38
Residuals in arcseconds: 
241113 G96  .18-  .04-    241114 I52  .22+  .12+    241115 I52  .67+  .03+    
241113 G96  .61+  .02+    241114 I52  .21-  .26-    241115 I52  1.1-  .26+    
241113 G96  .42-  .03+    241114 I52  .12+  .17+    
241114 I52  .17-  .04-    241115 I52  .45+  .30-    

Ephemerides (geocentric):
Date (UTC) HH   RA             Dec           delta  r     elong  mag " sig PA
---- --------  ------------   ------------  ------ ------ -----  --- --------
2024 11 20 16  09 06 51.616   +26 01 19.94  1.3511 1.8901 106.8 21.4 15.0  56
2024 11 20 17  09 06 52.434   +26 00 41.78  1.3508 1.8901 106.8 21.4 15.2  56
2024 11 20 18  09 06 53.248   +26 00 03.61  1.3504 1.8902 106.9 21.4 15.4  56
2024 11 20 19  09 06 54.058   +25 59 25.43  1.3500 1.8903 106.9 21.4 15.6  56
2024 11 20 20  09 06 54.863   +25 58 47.25  1.3496 1.8904 106.9 21.4 15.8  56
2024 11 20 21  09 06 55.663   +25 58 09.07  1.3492 1.8905 107.0 21.4 16.1  56
2024 11 20 22  09 06 56.459   +25 57 30.88  1.3489 1.8906 107.0 21.4 16.3  56
2024 11 20 23  09 06 57.251   +25 56 52.68  1.3485 1.8907 107.0 21.4 16.5  56
2024 11 21 00  09 06 58.038   +25 56 14.48  1.3481 1.8908 107.1 21.4 16.8  56
2024 11 21 01  09 06 58.821   +25 55 36.27  1.3477 1.8909 107.1 21.4 17.0  56
2024 11 21 02  09 06 59.600   +25 54 58.05  1.3473 1.8909 107.1 21.4 17.2  56
2024 11 21 03  09 07 00.374   +25 54 19.83  1.3470 1.8910 107.2 21.4 17.5  56
2024 11 21 04  09 07 01.143   +25 53 41.61  1.3466 1.8911 107.2 21.4 17.7  56
2024 11 21 05  09 07 01.908   +25 53 03.38  1.3462 1.8912 107.2 21.4 17.9  56
2024 11 21 06  09 07 02.669   +25 52 25.14  1.3458 1.8913 107.3 21.4 18.2  56
2024 11 21 07  09 07 03.425   +25 51 46.90  1.3454 1.8914 107.3 21.4 18.4  56
2024 11 21 08  09 07 04.177   +25 51 08.65  1.3451 1.8915 107.4 21.4 18.6  56
2024 11 21 09  09 07 04.924   +25 50 30.40  1.3447 1.8916 107.4 21.4 18.9  56
2024 11 21 10  09 07 05.667   +25 49 52.14  1.3443 1.8916 107.4 21.4 19.1  56
2024 11 21 11  09 07 06.405   +25 49 13.88  1.3439 1.8917 107.5 21.4 19.4  56
2024 11 21 12  09 07 07.139   +25 48 35.61  1.3435 1.8918 107.5 21.4 19.6  56
2024 11 21 13  09 07 07.868   +25 47 57.34  1.3432 1.8919 107.5 21.4 19.9  56
2024 11 21 14  09 07 08.593   +25 47 19.06  1.3428 1.8920 107.6 21.4 20.1  56
2024 11 21 15  09 07 09.314   +25 46 40.77  1.3424 1.8921 107.6 21.4 20.4  56
2024 11 21 16  09 07 10.030   +25 46 02.48  1.3420 1.8922 107.6 21.4 20.7  56
2024 11 21 17  09 07 10.741   +25 45 24.18  1.3416 1.8923 107.7 21.4 20.9  56
2024 11 21 18  09 07 11.449   +25 44 45.88  1.3413 1.8923 107.7 21.4 21.2  56
2024 11 21 19  09 07 12.151   +25 44 07.57  1.3409 1.8924 107.8 21.4 21.4  56
2024 11 21 20  09 07 12.849   +25 43 29.26  1.3405 1.8925 107.8 21.4 21.7  56
2024 11 21 21  09 07 13.543   +25 42 50.94  1.3401 1.8926 107.8 21.4 22.0  56
2024 11 21 22  09 07 14.232   +25 42 12.61  1.3397 1.8927 107.9 21.4 22.2  56
2024 11 21 23  09 07 14.917   +25 41 34.28  1.3394 1.8928 107.9 21.4 22.5  56
2024 11 22 00  09 07 15.597   +25 40 55.94  1.3390 1.8929 107.9 21.4 22.8  56
2024 11 22 01  09 07 16.273   +25 40 17.60  1.3386 1.8930 108.0 21.4 23.1  56
2024 11 22 02  09 07 16.944   +25 39 39.25  1.3382 1.8931 108.0 21.4 23.3  56
2024 11 22 03  09 07 17.611   +25 39 00.90  1.3378 1.8931 108.0 21.4 23.6  56
2024 11 22 04  09 07 18.273   +25 38 22.54  1.3375 1.8932 108.1 21.4 23.9  56
2024 11 22 05  09 07 18.931   +25 37 44.18  1.3371 1.8933 108.1 21.4 24.2  56
2024 11 22 06  09 07 19.584   +25 37 05.81  1.3367 1.8934 108.2 21.4 24.5  56
2024 11 22 07  09 07 20.233   +25 36 27.43  1.3363 1.8935 108.2 21.4 24.7  56
2024 11 22 08  09 07 20.877   +25 35 49.05  1.3360 1.8936 108.2 21.4 25.0  56
2024 11 22 09  09 07 21.516   +25 35 10.67  1.3356 1.8937 108.3 21.4 25.3  56
2024 11 22 10  09 07 22.152   +25 34 32.27  1.3352 1.8938 108.3 21.4 25.6  56
2024 11 22 11  09 07 22.782   +25 33 53.88  1.3348 1.8939 108.3 21.4 25.9  56
2024 11 22 12  09 07 23.409   +25 33 15.47  1.3344 1.8939 108.4 21.4 26.2  56
2024 11 22 13  09 07 24.030   +25 32 37.06  1.3341 1.8940 108.4 21.4 26.5  56
2024 11 22 14  09 07 24.647   +25 31 58.65  1.3337 1.8941 108.4 21.4 26.8  56
2024 11 22 15  09 07 25.260   +25 31 20.23  1.3333 1.8942 108.5 21.4 27.1  56